Tracking 31011 objects as of 12-Jul-2025
HD Live streaming from Space Station
objects crossing your sky now

STARLINK-3969

Track STARLINK-3969 now!
10-day predictions
STARLINK-3969 is classified as:


NORAD ID: 52551
Int'l Code: 2022-051U
Perigee: 545.9 km
Apogee: 547.8 km
Inclination: 53.2 °
Period: 95.4 minutes
Semi major axis: 6917 km
RCS: Unknown
Launch date: May 13, 2022
Source: United States (US)
Launch site: AIR FORCE WESTERN TEST RANGE (AFWTR)
Your satellite tracking list
Your tracking list is empty




NASA's NSSDC Master Catalog

Two Line Element Set (TLE):
1 52551U 22051U   25192.55942369  .00000634  00000-0  57918-4 0  9997
2 52551  53.2172 131.5977 0001373  91.6350 268.4800 15.08842317175113
Source of the keplerian elements: AFSPC